This demonstration page uses our WeatherBlox Daily Observations layout. Learn more.

Left ArrowRight Arrow

39.92423, -83.80882

Hourly Observations for December 3, 2022

Temp ( °F °C ) Dew Point ( °F °C ) Humidity (%) Winds ( mph kmh ) Pressure ( in mb ) Visibility ( mi km ) Precip ( " mm )
12:56 am 00:56 Cloudy 51 10.6 50 10 96 96 SSW 16 26 29.96 1014 10 16 0.01 0.25
1:20 am 01:20 Cloudy with Light Rain 52 11 52 11 100 100 SSW 20 31 29.95 1014 8 13 0.01 0.13
1:56 am 01:56 Cloudy with Light Rain 50 10 N/A N/A SW 17 28 29.96 1015 10 16 0.01 0.13
2:19 am 02:19 Cloudy with Light Rain 50 10 N/A N/A SSW 16 26 29.96 1015 5 8 0.01 0.25
2:41 am 02:41 Cloudy with Light Rain 50 10 N/A N/A SW 16 26 29.96 1015 6 10 0.01 0.25
2:56 am 02:56 Cloudy N/A N/A N/A SSW 17 28 29.99 1016 8 13 0.01 0.25
3:42 am 03:42 Cloudy N/A N/A N/A SSW 16 26 29.99 1016 5 8 0.01 0.25
3:56 am 03:56 Cloudy N/A N/A N/A SW 16 26 29.99 1016 6 10 0.01 0.25
4:56 am 04:56 Cloudy N/A N/A N/A SW 17 28 29.99 1016 10 16 0.01 0.13
5:18 am 05:18 Cloudy N/A N/A N/A WSW 16 26 30.00 1016 10 16 0.00 0.00
5:56 am 05:56 Cloudy 53 11.7 N/A N/A WSW 18 30 29.96 1014 10 16 0.00 0.00
6:38 am 06:38 Cloudy 54 12 N/A N/A WSW 20 31 29.96 1015 10 16 0.00 0.00
6:56 am 06:56 Cloudy 54 12.2 N/A N/A WSW 21 33 29.98 1015 10 16 0.00 0.00
7:20 am 07:20 Cloudy 54 12 N/A N/A WSW 22 35 29.98 1015 10 16 0.00 0.00
7:56 am 07:56 Cloudy 54 12.2 54 12.2 100 100 WSW 23 37 30.01 1016 10 16 0.00 0.00
8:28 am 08:28 Cloudy with Light Rain 46 8 46 8 100 100 W 30 48 30.07 1018 10 16 0.01 0.25
8:38 am 08:38 Cloudy 46 8 41 5 81 81 WNW 31 50 30.09 1019 10 16 0.01 0.25
8:56 am 08:56 Cloudy 45 7.2 38 3.3 76 76 W 24 39 30.11 1020 10 16 0.01 0.25
9:56 am 09:56 Sunny 43 6.1 34 1.1 70 70 W 18 30 30.14 1021 10 16 0.00 0.00
10:56 am 10:56 Sunny 41 5 31 -0.6 67 67 WNW 21 33 30.21 1023 10 16 0.00 0.00
11:56 am 11:56 Sunny 39 3.9 29 -1.7 67 67 NW 22 35 30.24 1024 10 16 0.00 0.00
12:56 pm 12:56 Sunny 40 4.4 29 -1.7 64 64 WNW 18 30 30.27 1025 10 16 0.00 0.00
1:56 pm 13:56 Sunny 40 4.4 26 -3.3 57 57 WNW 15 24 30.30 1026 10 16 0.00 0.00
2:56 pm 14:56 Sunny 39 3.9 26 -3.3 59 59 WNW 14 22 30.34 1027 10 16 0.00 0.00
3:56 pm 15:56 Sunny 38 3.3 25 -3.9 59 59 WNW 15 24 30.38 1029 10 16 0.00 0.00
4:56 pm 16:56 Sunny 34 1.1 24 -4.4 67 67 WNW 12 19 30.41 1030 10 16 0.00 0.00
5:56 pm 17:56 Clear 31 -0.6 24 -4.4 75 75 WNW 10 17 30.41 1030 10 16 0.00 0.00
6:56 pm 18:56 Clear 27 -2.8 23 -5 85 85 W 6 9 30.42 1030 10 16 0.00 0.00
7:56 pm 19:56 Clear 25 -3.9 22 -5.6 88 88 W 7 11 30.42 1030 10 16 0.00 0.00
8:56 pm 20:56 Clear 25 -3.9 23 -5 92 92 W 6 9 30.43 1031 10 16 0.00 0.00
9:56 pm 21:56 Clear 25 -3.9 22 -5.6 88 88 WNW 8 13 30.46 1031 10 16 0.00 0.00
10:56 pm 22:56 Clear 24 -4.4 20 -6.7 84 84 WNW 3 6 30.45 1031 10 16 0.00 0.00
11:56 pm 23:56 Clear 23 -5 19 -7.2 84 84 WNW 5 7 30.45 1031 10 16 0.00 0.00

Powered by AerisWeather